Date String (YYYY-MM-DD hh:mm:ss) UTC,Instrument flags,absolute air pressure of the measurement (hPa),sample flow rate (lpm),inlet stack bypass flow (lpm),air temperature of the measurement (°C),ambient temperature measured by the external sensor (°C),aerosol sample conditioner tube jacket temperature (°C),OPC LED temperature (°C),internal box temperature (°C),relative humidity of the measurement (%),span deviation,mass concentration of particles derived from Lorenz-Mie calculation of OPC scattering (μg/m³),mass concentration of particles derived from Lorenz-Mie calculation of OPC scattering (μg/m³),mass concentration of particles derived from Lorenz-Mie calculation of OPC scattering (μg/m³)
DateTimeUTC,F1_M11,P_M11,Q1_M11,Q2_M11,T1_M11,T2_M11,T3_M11,T4_M11,T5_M11,U1_M11,ZSPAN_M11,X0_M11,X2_M11,X1_M11
2023-09-04 22:00:00,SystemResetWarning,0822.0,5.00,000.00,027.6,026.4,000.0,035.8,029.4,21.0,0000.0,0006.97,0001.41,0000.85
2023-09-04 22:01:00,SystemResetWarning,0821.9,4.99,000.00,027.7,026.1,000.0,035.8,029.3,21.1,0000.0,0007.91,0001.43,0000.85
2023-09-04 22:02:00,SystemResetWarning,0821.8,4.99,000.00,027.6,024.7,000.0,035.8,028.7,21.0,0000.0,0007.79,0001.40,0000.86
2023-09-04 22:03:00,SystemResetWarning,0821.8,5.00,000.00,027.4,024.0,000.0,035.7,028.6,20.7,0000.0,0007.89,0001.40,0000.88
2023-09-04 22:04:00,SystemResetWarning,0821.9,5.02,000.00,027.4,024.2,000.0,035.7,028.7,20.5,0000.0,0008.23,0001.43,0000.88
2023-09-04 22:05:00,SystemResetWarning,0821.8,5.00,000.00,027.4,024.6,000.0,035.7,028.8,20.5,0000.0,0007.71,0001.43,0000.89
2023-09-04 22:06:00,SystemResetWarning,0822.0,5.00,000.00,027.4,025.1,000.0,035.7,029.0,20.6,0000.0,0007.87,0001.43,0000.90
2023-09-04 22:07:00,SystemResetWarning,0822.0,5.00,000.00,027.4,025.5,000.0,035.7,029.1,20.5,0000.0,0008.42,0001.46,0000.91
2023-09-04 22:08:00,SystemResetWarning,0822.0,5.01,000.00,027.5,025.9,000.0,035.7,029.2,20.6,0000.0,0008.47,0001.48,0000.91
2023-09-04 22:09:00,SystemResetWarning,0822.0,4.99,000.00,027.5,026.2,000.0,035.8,029.3,20.5,0000.0,0008.52,0001.51,0000.90
2023-09-04 22:10:00,SystemResetWarning,0822.0,5.00,000.00,027.6,026.4,000.0,035.8,029.4,20.0,0000.0,0008.51,0001.49,0000.91
2023-09-04 22:11:00,SystemResetWarning,0822.1,4.99,000.00,027.6,025.6,000.0,035.8,029.1,20.0,0000.0,0007.97,0001.46,0000.91
2023-09-04 22:12:00,SystemResetWarning,0822.1,5.00,000.00,027.5,024.2,000.0,035.7,028.5,20.4,0000.0,0006.73,0001.44,0000.91
2023-09-04 22:13:00,SystemResetWarning,0822.1,5.01,000.00,027.4,024.0,000.0,035.7,028.6,20.6,0000.0,0007.29,0001.42,0000.91
2023-09-04 22:14:00,SystemResetWarning,0822.0,5.01,000.00,027.3,024.3,000.0,035.7,028.6,20.6,0000.0,0008.19,0001.41,0000.92
2023-09-04 22:15:00,SystemResetWarning,0822.0,5.00,000.00,027.3,024.7,000.0,035.7,028.8,20.6,0000.0,0007.91,0001.44,0000.92
2023-09-04 22:16:00,SystemResetWarning,0822.1,4.99,000.00,027.3,025.1,000.0,035.7,028.9,21.1,0000.0,0007.88,0001.50,0000.92
2023-09-04 22:17:00,SystemResetWarning,0822.0,5.00,000.00,027.4,025.5,000.0,035.7,029.0,20.8,0000.0,0008.17,0001.54,0000.92
2023-09-04 22:18:00,SystemResetWarning,0822.0,5.01,000.00,027.5,025.9,000.0,035.7,029.2,20.7,0000.0,0007.91,0001.56,0000.90
2023-09-04 22:19:00,SystemResetWarning,0822.1,5.01,000.00,027.5,026.2,000.0,035.7,029.3,20.4,0000.0,0007.90,0001.54,0000.91
2023-09-04 22:20:00,SystemResetWarning,0822.0,5.00,000.00,027.6,026.5,000.0,035.8,029.4,20.5,0000.0,0007.95,0001.51,0000.91
2023-09-04 22:21:00,SystemResetWarning,0822.0,4.98,000.00,027.6,026.5,000.0,035.8,029.4,19.7,0000.0,0007.74,0001.51,0000.90
2023-09-04 22:22:00,SystemResetWarning,0822.0,5.00,000.00,027.6,025.1,000.0,035.8,028.8,19.8,0000.0,0008.01,0001.56,0000.90
2023-09-04 22:23:00,SystemResetWarning,0822.0,5.01,000.00,027.4,024.1,000.0,035.7,028.5,20.1,0000.0,0008.16,0001.61,0000.89
2023-09-04 22:24:00,SystemResetWarning,0822.0,5.01,000.00,027.4,024.1,000.0,035.6,028.6,19.9,0000.0,0007.93,0001.67,0000.88
2023-09-04 22:25:00,SystemResetWarning,0822.1,5.00,000.00,027.3,024.5,000.0,035.6,028.7,20.2,0000.0,0006.82,0001.67,0000.87
2023-09-04 22:26:00,SystemResetWarning,0822.1,4.99,000.00,027.3,024.9,000.0,035.7,028.8,20.4,0000.0,0006.99,0001.66,0000.86
2023-09-04 22:27:00,SystemResetWarning,0822.1,5.00,000.00,027.4,025.3,000.0,035.7,029.0,20.1,0000.0,0007.04,0001.66,0000.85
2023-09-04 22:28:00,SystemResetWarning,0822.0,5.00,000.00,027.5,025.7,000.0,035.7,029.2,19.9,0000.0,0006.24,0001.62,0000.85
2023-09-04 22:29:00,SystemResetWarning,0822.0,5.01,000.00,027.5,026.1,000.0,035.7,029.3,19.4,0000.0,0006.12,0001.62,0000.84
2023-09-04 22:30:00,SystemResetWarning,0821.9,5.00,000.00,027.6,026.4,000.0,035.8,029.4,19.6,0000.0,0005.54,0001.62,0000.84
2023-09-04 22:31:00,SystemResetWarning,0822.0,4.99,000.00,027.7,026.6,000.0,035.8,029.5,19.4,0000.0,0004.95,0001.64,0000.83
2023-09-04 22:32:00,SystemResetWarning,0821.9,4.99,000.00,027.7,026.3,000.0,035.8,029.4,19.3,0000.0,0004.84,0001.64,0000.83
2023-09-04 22:33:00,SystemResetWarning,0821.8,5.00,000.00,027.6,024.7,000.0,035.8,028.8,19.4,0000.0,0004.48,0001.64,0000.82
2023-09-04 22:34:00,SystemResetWarning,0821.8,5.00,000.00,027.5,024.1,000.0,035.7,028.6,19.9,0000.0,0005.77,0001.63,0000.82
2023-09-04 22:35:00,SystemResetWarning,0821.7,5.00,000.00,027.4,024.3,000.0,035.7,028.7,19.7,0000.0,0006.63,0001.59,0000.82
2023-09-04 22:36:00,SystemResetWarning,0821.7,5.00,000.00,027.4,024.7,000.0,035.7,028.8,18.7,0000.0,0006.58,0001.58,0000.80
2023-09-04 22:37:00,SystemResetWarning,0821.8,5.02,000.00,027.4,025.1,000.0,035.7,029.0,18.5,0000.0,0006.10,0001.51,0000.79
2023-09-04 22:38:00,SystemResetWarning,0821.4,5.00,000.00,027.5,025.5,000.0,035.7,029.1,18.7,0000.0,0005.96,0001.47,0000.79
2023-09-04 22:39:00,SystemResetWarning,0821.3,5.00,000.00,027.5,025.9,000.0,035.8,029.2,18.7,0000.0,0007.16,0001.54,0000.78
2023-09-04 22:40:00,SystemResetWarning,0821.2,5.00,000.00,027.6,026.2,000.0,035.8,029.3,18.8,0000.0,0007.76,0001.57,0000.78
2023-09-04 22:41:00,SystemResetWarning,0821.2,5.00,000.00,027.6,026.5,000.0,035.8,029.4,19.0,0000.0,0008.60,0001.58,0000.78
2023-09-04 22:42:00,SystemResetWarning,0821.0,4.99,000.00,027.7,026.3,000.0,035.8,029.4,19.2,0000.0,0009.53,0001.61,0000.78
2023-09-04 22:43:00,SystemResetWarning,0820.9,4.99,000.00,027.6,024.8,000.0,035.8,028.8,19.7,0000.0,0009.67,0001.64,0000.78
2023-09-04 22:44:00,SystemResetWarning,0820.9,5.01,000.00,027.5,024.0,000.0,035.7,028.5,20.1,0000.0,0009.72,0001.63,0000.77
2023-09-04 22:45:00,SystemResetWarning,0820.8,5.01,000.00,027.4,024.2,000.0,035.7,028.6,20.2,0000.0,0009.08,0001.61,0000.76
2023-09-04 22:46:00,SystemResetWarning,0820.8,5.00,000.00,027.4,024.5,000.0,035.7,028.7,20.1,0000.0,0008.53,0001.63,0000.76
2023-09-04 22:47:00,SystemResetWarning,0820.8,5.00,000.00,027.4,025.0,000.0,035.7,028.9,20.4,0000.0,0008.69,0001.64,0000.77
2023-09-04 22:48:00,SystemResetWarning,0820.9,5.00,000.00,027.4,025.4,000.0,035.7,029.1,20.2,0000.0,0008.74,0001.69,0000.79
2023-09-04 22:49:00,SystemResetWarning,0820.9,4.99,000.00,027.5,025.8,000.0,035.7,029.2,19.9,0000.0,0008.84,0001.70,0000.78
2023-09-04 22:50:00,SystemResetWarning,0820.9,5.00,000.00,027.5,026.1,000.0,035.8,029.3,19.1,0000.0,0008.34,0001.61,0000.77
2023-09-04 22:51:00,SystemResetWarning,0820.9,5.00,000.00,027.6,026.4,000.0,035.8,029.4,19.1,0000.0,0007.43,0001.53,0000.76
2023-09-04 22:52:00,SystemResetWarning,0821.0,4.99,000.00,027.6,026.3,000.0,035.8,029.4,19.5,0000.0,0007.07,0001.48,0000.75
2023-09-04 22:53:00,SystemResetWarning,0821.0,5.00,000.00,027.6,024.9,000.0,035.8,028.8,19.6,0000.0,0004.64,0001.43,0000.74
2023-09-04 22:54:00,SystemResetWarning,0821.0,5.01,000.00,027.4,023.9,000.0,035.7,028.5,20.0,0000.0,0004.70,0001.45,0000.73
2023-09-04 22:55:00,SystemResetWarning,0821.0,5.01,000.00,027.3,024.0,000.0,035.7,028.6,19.9,0000.0,0004.40,0001.42,0000.73
2023-09-04 22:56:00,SystemResetWarning,0821.0,4.99,000.00,027.3,024.4,000.0,035.7,028.7,20.0,0000.0,0004.30,0001.38,0000.73
2023-09-04 22:57:00,SystemResetWarning,0821.0,5.00,000.00,027.3,024.8,000.0,035.7,028.8,20.4,0000.0,0004.07,0001.35,0000.72
2023-09-04 22:58:00,SystemResetWarning,0820.9,5.01,000.00,027.3,025.2,000.0,035.7,029.0,20.3,0000.0,0003.84,0001.37,0000.71
2023-09-04 22:59:00,SystemResetWarning,0821.0,5.00,000.00,027.4,025.6,000.0,035.7,029.1,19.9,0000.0,0003.95,0001.36,0000.70
